Location: Blankensee
(53.5126°N, 14.3055°E)
Time: 18:39:45
(UTC+00:00)

IRS-1D - Pass Details

Date: 08 August 2020
Orbit: 741 x 816 km, 98.6° (Epoch: 19 September)

Event Time Altitude Azimuth Distance (km) Brightness Sun altitude
Rises 01:46:52 0° 14° (NNE) 3,212 8.0 -12.6°
Reaches altitude 10° 01:49:09 10° 13° (NNE) 2,291 7.0 -12.4°
Maximum altitude 01:54:11 75° 289° (WNW) 796 3.5 -11.9°
Enters shadow 01:58:31 14° 206° (SSW) 2,020 5.1 -11.5°
